Location: Marsån
(66.4167°N, 22.2833°E)
Time: 08:17:55
(UTC+00:00)

Cosmos 1340 Rocket - Pass Details

Date: 24 February 2024
Orbit: 509 x 544 km, 81.2° (Epoch: 21 April)

Event Time Altitude Azimuth Distance (km) Brightness Sun altitude
Rises 17:58:49 0° 336° (NNW) 2,670 6.9 -16.1°
Reaches altitude 10° 18:01:09 10° 346° (NNW) 1,771 5.8 -16.3°
Maximum altitude 18:04:41 33° 51° (NE) 900 3.6 -16.6°
Enters shadow 18:05:16 31° 70° (ENE) 931 3.5 -16.7°
